Location: Gokavaram
(16.9752°N, 81.0696°E)
Time: 10:29:03
(UTC+00:00)

SJ-6B - Pass Details

Date: 15 May 2026
Orbit: 453 x 496 km, 97.3° (Epoch: 6 June)

Event Time Altitude Azimuth Distance (km) Brightness Sun altitude
Exits shadow 13:43:05 12° 140° (SE) 1,509 4.5 -10.4°
Maximum altitude 13:45:56 33° 77° (ENE) 802 3.2 -11.0°
Drops below altitude 10° 13:49:05 10° 12° (NNE) 1,614 5.4 -11.7°
Sets 13:51:14 0° 2° (N) 2,483 6.5 -12.2°
